FENGYUN 1C DEB

Satellite information

Favourite Embed

Satellite Type and Status

DEBRISIN ORBIT

Key statistics

Satellite FENGYUN 1C DEB at a glance.

Uptime

9555

Days in orbit

Revolutions

≈ 14.1

Per day

Orbit

SSO

Sun Synchronous Orbit

Inclination

98.8

Latest

Satellite identification and parameters

Extended collection of information and parameters for FENGYUN 1C DEB.

Object identification

Identified? True

Debris? True

Object name: FENGYUN 1C DEB

International designator: 1999-025KL

Object number (NORAD): 29962

Object ID (CCSDS): 29962

Country: PEOPLES REPUBLIC OF CHINA (PRC)

Current information (Y/N): Y

RCS size: SMALL

Orbital parameters

Period: 102.343 minutes

Inclination: 98.7705 deg

SMA: 7247.696 km

Apoapsis: 948.944 km

Periapsis: 790.179 km

RAAN: 200.3727 deg

Eccentricy: 0.0109528

Argument of periapsis: 310.3651 deg

Mean anomaly: 203.1406 deg

Mean motion: 14.07028176 rev/day

Mean motion (dot): 0.00000171 rev/day2

B* drag term: 0.00012143 1/REarth

Two-line elements (TLE)

Creation date: July 6, 2025, 6:05 p.m.

Reference frame: TEME

Reference center: EARTH

Epoch: July 6, 2025, 12:15 p.m. UTC

TLE line 0: 0 FENGYUN 1C DEB

TLE line 1: 1 29962U 99025KL 25187.51051138 .00000171 00000-0 12143-3 0 9993

TLE line 2: 2 29962 98.7705 200.3727 0109528 310.3651 203.1406 14.07028176947586

Live tracking on map

Real-time ground track for satellite FENGYUN 1C DEB.

In-orbit conjunctions

A list of the most updated potential collisions computed for object FENGYUN 1C DEB.

Target Orbit TCA Probability of collision Miss distance Type
DMSP 5D-2 F8 (USA 26) SSO 2025-01-11 18:15:03 0.009438363 27.0 (m) PAYLOAD

Associated space launch

Chinese polar orbiting meteorological satellite

FENGYUN 1C DEB was lifted into orbit during the mission ‘Long March 4B | Feng Yun 1C’, on board a Long March 4B space rocket.

The launch took place on May 10, 1999, 1:33 a.m. from Launch Complex 7.

For more information about the launch, click the button.

Launch to space Long March 4B | Feng Yun 1C
Long March 4B | Feng Yun 1C

Agency: N/A

Status: Launch Successful

Launch date: May 10, 1999, 1:33 a.m. UTC

Rocket: Long March 4B

Launch pad: Launch Complex 7

Location: Taiyuan Satellite Launch Center, People's Republic of China

...

Latest news about this satellite

There are no fresh news available about this satellite. Check back as we update our databases every day.


Newsletter sign-up

Weekly statistics, charts and insights to help you stay on top of the space industry.